Hourly Weather Russkaya Bokla

Today, 16 April, Friday

Time Temperature Precipitation Wind Pressure Humidity
00:00 +13°C° 0 mm 1 mps 753 mmHg 53%
01:00 +12°C° 0 mm 1 mps 753 mmHg 55%
02:00 +12°C° 0 mm 1 mps 753 mmHg 57%
03:00 +12°C° 0 mm 1 mps 753 mmHg 58%
04:00 +11°C° 0 mm 1 mps 753 mmHg 60%
05:00 +11°C° 0 mm 1 mps 753 mmHg 61%
06:00 +11°C° 0 mm 1 mps 753 mmHg 61%
07:00 +12°C° 0 mm 1 mps 753 mmHg 61%
08:00 +13°C° 0 mm 1 mps 753 mmHg 57%
09:00 +15°C° 0 mm 1 mps 753 mmHg 53%
10:00 +16°C° 0 mm 2 mps 753 mmHg 48%
11:00 +17°C° 0 mm 2 mps 753 mmHg 46%
12:00 +18°C° 0 mm 2 mps 753 mmHg 43%
13:00 +20°C° 0 mm 3 mps 753 mmHg 40%
14:00 +20°C° 0 mm 3 mps 753 mmHg 39%
15:00 +20°C° 0 mm 3 mps 753 mmHg 37%
16:00 +20°C° 0 mm 3 mps 753 mmHg 36%
17:00 +19°C° 0 mm 3 mps 753 mmHg 43%
18:00 +18°C° 0 mm 3 mps 753 mmHg 50%
19:00 +17°C° 0 mm 3 mps 753 mmHg 57%
20:00 +14°C° 0 mm 4 mps 754 mmHg 65%
21:00 +13°C° 0 mm 5 mps 754 mmHg 73%
22:00 +11°C° 0 mm 6 mps 754 mmHg 81%
23:00 +10°C° 0 mm 5 mps 754 mmHg 84%

Tomorrow, 17 April, Saturday

Time Temperature Precipitation Wind Pressure Humidity
00:00 +9°C° 0 mm 5 mps 754 mmHg 87%
01:00 +8°C° 0 mm 5 mps 755 mmHg 89%
02:00 +7°C° 0 mm 4 mps 755 mmHg 89%
03:00 +7°C° 0 mm 4 mps 755 mmHg 89%
04:00 +6°C° 0 mm 4 mps 755 mmHg 89%
05:00 +6°C° 0 mm 4 mps 755 mmHg 88%
06:00 +6°C° 0 mm 4 mps 755 mmHg 86%
07:00 +6°C° 0 mm 4 mps 755 mmHg 84%
08:00 +8°C° 0 mm 4 mps 755 mmHg 77%
09:00 +9°C° 0 mm 5 mps 756 mmHg 70%
10:00 +12°C° 0 mm 5 mps 756 mmHg 63%
11:00 +13°C° 0 mm 5 mps 755 mmHg 58%
12:00 +14°C° 0 mm 5 mps 755 mmHg 53%
13:00 +15°C° 0 mm 5 mps 755 mmHg 48%
14:00 +15°C° 0 mm 5 mps 755 mmHg 46%
15:00 +15°C° 0 mm 5 mps 755 mmHg 43%
16:00 +16°C° 0 mm 5 mps 755 mmHg 41%
17:00 +15°C° 0 mm 4 mps 755 mmHg 43%
18:00 +13°C° 0 mm 4 mps 755 mmHg 45%
19:00 +12°C° 0 mm 4 mps 755 mmHg 47%
20:00 +11°C° 0 mm 4 mps 755 mmHg 51%
21:00 +10°C° 0 mm 4 mps 755 mmHg 54%
22:00 +9°C° 0 mm 3 mps 755 mmHg 57%
23:00 +7°C° 0 mm 4 mps 755 mmHg 57%

Day after tomorrow, 18 April, Sunday

Time Temperature Precipitation Wind Pressure Humidity
00:00 +7°C° 0 mm 4 mps 755 mmHg 57%
01:00 +6°C° 0 mm 4 mps 755 mmHg 58%
02:00 +5°C° 0 mm 4 mps 755 mmHg 60%
03:00 +5°C° 0 mm 3 mps 755 mmHg 62%
04:00 +4°C° 0 mm 3 mps 755 mmHg 64%
05:00 +4°C° 0 mm 3 mps 756 mmHg 64%
06:00 +4°C° 0 mm 3 mps 756 mmHg 64%
07:00 +5°C° 0 mm 3 mps 756 mmHg 63%
08:00 +6°C° 0 mm 4 mps 756 mmHg 57%
09:00 +8°C° 0 mm 4 mps 756 mmHg 51%
10:00 +9°C° 0 mm 5 mps 755 mmHg 45%
11:00 +10°C° 0 mm 5 mps 755 mmHg 42%
12:00 +12°C° 0 mm 5 mps 755 mmHg 39%
13:00 +13°C° 0 mm 4 mps 755 mmHg 36%
14:00 +13°C° 0 mm 5 mps 755 mmHg 36%
15:00 +13°C° 0 mm 5 mps 755 mmHg 35%
16:00 +14°C° 0 mm 5 mps 755 mmHg 35%
17:00 +13°C° 0 mm 5 mps 755 mmHg 39%
18:00 +12°C° 0 mm 4 mps 755 mmHg 44%
19:00 +11°C° 0 mm 4 mps 755 mmHg 49%
20:00 +9°C° 0 mm 5 mps 756 mmHg 55%
21:00 +8°C° 0 mm 6 mps 756 mmHg 61%
22:00 +5°C° 0 mm 6 mps 756 mmHg 68%
23:00 +5°C° 0 mm 6 mps 756 mmHg 69%

19 April, Monday

Time Temperature Precipitation Wind Pressure Humidity
00:00 +5°C° 0 mm 5 mps 756 mmHg 70%
01:00 +3°C° 0 mm 5 mps 757 mmHg 70%
02:00 +3°C° 0 mm 5 mps 757 mmHg 73%
03:00 +2°C° 0 mm 6 mps 757 mmHg 76%
04:00 +2°C° 0 mm 6 mps 757 mmHg 79%
05:00 +2°C° 0 mm 6 mps 757 mmHg 79%
06:00 +2°C° 0 mm 6 mps 758 mmHg 78%
07:00 +2°C° 0 mm 6 mps 758 mmHg 78%
08:00 +3°C° 0 mm 6 mps 758 mmHg 70%
09:00 +4°C° 0 mm 7 mps 758 mmHg 63%
10:00 +4°C° 0 mm 7 mps 759 mmHg 56%
11:00 +4°C° 0 mm 7 mps 759 mmHg 55%
12:00 +5°C° 0 mm 7 mps 759 mmHg 54%
13:00 +5°C° 0 mm 7 mps 759 mmHg 53%
14:00 +5°C° 0 mm 7 mps 759 mmHg 53%
15:00 +5°C° 0 mm 7 mps 760 mmHg 54%
16:00 +5°C° 0 mm 7 mps 760 mmHg 54%
17:00 +5°C° 0 mm 6 mps 760 mmHg 54%
18:00 +6°C° 0 mm 5 mps 760 mmHg 54%
19:00 +6°C° 0 mm 5 mps 760 mmHg 54%
20:00 +5°C° 0 mm 5 mps 760 mmHg 55%
21:00 +5°C° 0 mm 5 mps 760 mmHg 57%
22:00 +4°C° 0 mm 4 mps 761 mmHg 58%
23:00 +2°C° 0 mm 5 mps 761 mmHg 57%

20 April, Tuesday

Time Temperature Precipitation Wind Pressure Humidity
00:00 +2°C° 0 mm 5 mps 761 mmHg 56%
01:00 +1°C° 0 mm 6 mps 761 mmHg 55%
02:00 -1°C° 0 mm 6 mps 761 mmHg 55%
03:00 -1°C° 0 mm 6 mps 762 mmHg 56%
04:00 -2°C° 0 mm 6 mps 762 mmHg 56%
05:00 -2°C° 0 mm 6 mps 762 mmHg 55%
06:00 -2°C° 0 mm 6 mps 763 mmHg 53%
07:00 -2°C° 0 mm 6 mps 763 mmHg 52%
08:00 -1°C° 0 mm 7 mps 763 mmHg 45%
09:00 +2°C° 0 mm 7 mps 763 mmHg 39%
10:00 +2°C° 0 mm 8 mps 763 mmHg 33%
11:00 +4°C° 0 mm 8 mps 763 mmHg 31%
12:00 +5°C° 0 mm 8 mps 763 mmHg 29%
13:00 +6°C° 0 mm 8 mps 762 mmHg 26%
14:00 +8°C° 0 mm 7 mps 762 mmHg 26%
15:00 +8°C° 0 mm 7 mps 762 mmHg 26%
16:00 +9°C° 0 mm 7 mps 761 mmHg 25%
17:00 +8°C° 0 mm 6 mps 762 mmHg 28%
18:00 +8°C° 0 mm 6 mps 762 mmHg 31%
19:00 +7°C° 0 mm 5 mps 762 mmHg 34%
20:00 +6°C° 0 mm 5 mps 762 mmHg 37%
21:00 +5°C° 0 mm 5 mps 762 mmHg 40%
22:00 +3°C° 0 mm 5 mps 762 mmHg 43%
23:00 +2°C° 0 mm 5 mps 762 mmHg 44%

21 April, Wednesday

Time Temperature Precipitation Wind Pressure Humidity
00:00 +2°C° 0 mm 5 mps 762 mmHg 46%
01:00 +1°C° 0 mm 5 mps 763 mmHg 47%
02:00 +1°C° 0 mm 5 mps 763 mmHg 48%
03:00 -1°C° 0 mm 6 mps 763 mmHg 49%
04:00 -1°C° 0 mm 6 mps 763 mmHg 51%
05:00 -1°C° 0 mm 6 mps 763 mmHg 50%
06:00 -1°C° 0 mm 6 mps 763 mmHg 50%
07:00 -1°C° 0 mm 7 mps 763 mmHg 49%
08:00 +2°C° 0 mm 7 mps 763 mmHg 44%
09:00 +3°C° 0 mm 7 mps 763 mmHg 39%
10:00 +5°C° 0 mm 8 mps 763 mmHg 33%
11:00 +6°C° 0 mm 8 mps 762 mmHg 31%
12:00 +9°C° 0 mm 8 mps 762 mmHg 29%
13:00 +10°C° 0 mm 8 mps 762 mmHg 26%
14:00 +11°C° 0 mm 8 mps 761 mmHg 26%
15:00 +11°C° 0 mm 8 mps 761 mmHg 26%
16:00 +12°C° 0 mm 8 mps 761 mmHg 26%
17:00 +11°C° 0 mm 7 mps 761 mmHg 29%
18:00 +10°C° 0 mm 6 mps 761 mmHg 33%
19:00 +10°C° 0 mm 5 mps 761 mmHg 37%
20:00 +9°C° 0 mm 5 mps 761 mmHg 39%
21:00 +8°C° 0 mm 5 mps 761 mmHg 41%
22:00 +8°C° 0 mm 5 mps 761 mmHg 44%
23:00 +7°C° 0 mm 5 mps 761 mmHg 46%
Show more